Location: Unspecified
(0.0000°N, 0.0000°E)
Time: 06:12:20
(UTC+00:00)

Transit 2A Rocket - Pass Details

Date: 23 November 2019
Orbit: 584 x 919 km, 66.7° (Epoch: 08 July)

Event Time Altitude Azimuth Distance (km) Brightness Sun altitude
Rises 17:49:19 0° 171° (S) 3,398 8.5 -0.7°
Reaches altitude 10° 17:52:46 10° 151° (SSE) 2,396 7.5 -1.5°
Maximum altitude 17:56:10 17° 113° (ESE) 1,896 6.6 -2.3°
Drops below altitude 10° 17:59:25 10° 74° (ENE) 2,248 6.8 -3.0°
Enters shadow 18:01:27 - 58° (ENE) 2,781 7.2 -3.5°
Sets 18:02:28 0° 53° (NE) 3,095 - -3.8°
